Flag for Greece Weather past 2 weeks in Ilioupoli, Greece

Now
61 °F

Partly sunny.


Feels Like: 61 °F
Forecast: 50 / 56 °F
Wind: 7 mph from Southeast

Location: Eleftherios Venizelos International Airport

Current Time: Mar 6, 2015 at 8:42:05 AM

Latest Report: Mar 6, 2015 at 7:50 AM


Visibility: N/A

Pressure: 29.98 "Hg

Humidity: 72%

Dew point: 52 °F

Location of IlioupoliLocation

Historic Weather in Ilioupoli — Graph

°F

Ilioupoli temperature yesterday

Maximum temperature yesterday: 63 °F (at 3:20 PM)
Minimum temperature yesterday: 39 °F (at 1:50 AM)
Average temperature yesterday: 53 °F

Past Weeks' High & Low Weather Summary

 TemperatureHumidityPressure
High70 °F (Mar 3, 2:50 PM)93% (Mar 1, 5:20 AM)30.39 "Hg (Mar 1, 5:20 AM)
Low34 °F (Feb 19, 7:50 AM)29% (Feb 19, 3:50 PM)29.65 "Hg (Feb 27, 3:50 PM)
Average52 °F70%29.99 "Hg
* Reported Feb 19 7:50 AM — Mar 6 7:20 AM, Ilioupoli, Weather by CustomWeather, © 2015

Note: Actual official high and low records may vary slightly from our data, if they occured in-between our weather recording intervals... More about our weather records

Advertising

Ilioupoli weather history for previous 24 hours

 ConditionsComfort  
Time TempWeatherWind HumidityBarometerVisibility
7:20 AM
Fri, Mar 6
59 °FPartly sunny.6 mph77%29.98 "HgN/A
5:20 AM59 °FPassing clouds.13 mph77%29.95 "HgN/A
4:50 AM59 °FPassing clouds.13 mph72%29.95 "HgN/A
4:20 AM59 °FPassing clouds.14 mph72%29.98 "HgN/A
3:50 AM59 °FPassing clouds.9 mph72%29.98 "HgN/A
3:20 AM61 °FPassing clouds.8 mph68%29.98 "HgN/A
2:50 AM61 °FPassing clouds.8 mph68%29.98 "HgN/A
2:20 AM61 °FPassing clouds.9 mph68%30.01 "HgN/A
1:50 AM61 °FPassing clouds.9 mph68%30.01 "HgN/A
1:20 AM59 °FPassing clouds.8 mph77%30.01 "HgN/A
12:50 AM59 °FPassing clouds.7 mph77%30.01 "HgN/A
12:20 AM59 °FPassing clouds.9 mph77%30.01 "HgN/A
10:50 PM
Thu, Mar 5
59 °FPartly cloudy.12 mph77%30.01 "HgN/A
9:20 PM59 °FPassing clouds.15 mph72%30.04 "HgN/A
8:50 PM59 °FPassing clouds.13 mph72%30.04 "HgN/A
8:20 PM59 °FPassing clouds.12 mph72%30.04 "HgN/A
7:50 PM59 °FPassing clouds.14 mph72%30.04 "HgN/A
7:20 PM57 °FPassing clouds.15 mph77%30.01 "HgN/A
6:50 PM59 °FPassing clouds.17 mph72%30.01 "HgN/A
6:20 PM59 °FScattered clouds.15 mph72%30.01 "HgN/A
5:50 PM59 °FScattered clouds.15 mph72%30.04 "HgN/A
5:20 PM59 °FScattered clouds.15 mph72%30.04 "HgN/A
4:50 PM61 °FBroken clouds.13 mph68%30.04 "HgN/A
4:20 PM61 °FPartly sunny.14 mph68%30.04 "HgN/A
3:50 PM61 °FPartly sunny.15 mph68%30.04 "HgN/A
3:20 PM63 °FPartly sunny.16 mph64%30.04 "HgN/A
2:50 PM61 °FPartly sunny.16 mph63%30.04 "HgN/A
2:20 PM59 °FPartly sunny.12 mph68%30.07 "HgN/A
1:50 PM59 °FPartly sunny.15 mph63%30.07 "HgN/A
1:20 PM59 °FPartly sunny.14 mph63%30.07 "HgN/A
12:50 PM59 °FPartly sunny.13 mph68%30.09 "HgN/A
12:20 PM59 °FPartly sunny.14 mph63%30.09 "HgN/A
11:50 AM59 °FScattered clouds.12 mph63%30.09 "HgN/A
11:20 AM59 °FScattered clouds.9 mph59%30.12 "HgN/A
10:50 AM57 °FScattered clouds.12 mph63%30.12 "HgN/A
10:20 AM57 °FScattered clouds.7 mph63%30.12 "HgN/A
9:50 AM57 °FScattered clouds.6 mph59%30.12 "HgN/A
9:20 AM55 °FScattered clouds.3 mph63%30.15 "HgN/A
8:50 AM52 °FScattered clouds.No wind82%30.15 "HgN/A
8:20 AM46 °FPartly sunny.No wind87%30.15 "HgN/A
Weather by CustomWeather, © 2015

See weather overviewHow to use our weather pages